Language: 


Des rapports , des résumés tant et plus, au choix de chacun....


Données statistiques de la station
Quotidien Rapport Octobre 21, 2017 Unités:  Métrique    Anglais   les deux
« Précédent Jour
Suivant Jour »
Quotidien Hebdomadaire Mensuel Annuel Actuel
  Haut: Bas: Moyen:
Température: 13.7 °C 0.0 °C 12.6 °C
Pt de rosée: 14.0 °C 9.0 °C 12 °C
Humidité: 98 % 0 % 93 %
Vitesse du vent: 46.8 km/h 0.0 km/h 13.4 km/h
Rafales: 49.7 km/h - -
Vent:- - SW
Pression: 1011.1 hPa 0.0 hPa -
Précipitation: 4.3 mm    
Historical Graphs
 
 
Données statistiques pour Octobre 21, 2017
Heure Température Point de rosée Pression Vent Vitesse du vent Refales Humidité Pluie (taux horaire)
00:04 11.4 °C 9.0 °C 1011.1 hPa South 2.6 km/h 7.2 km/h 88 % 0.0 mm
00:09 11.5 °C 10.0 °C 1011.1 hPa SW 5.0 km/h 10.5 km/h 88 % 0.0 mm
00:14 11.5 °C 10.0 °C 1011.1 hPa South 10.5 km/h 12.6 km/h 88 % 0.0 mm
00:19 11.6 °C 10.0 °C 1011.1 hPa South 7.6 km/h 13.7 km/h 88 % 0.0 mm
00:24 11.6 °C 10.0 °C 1011.1 hPa SW 6.9 km/h 13.7 km/h 87 % 0.0 mm
00:29 11.4 °C 9.0 °C 1011.1 hPa South 8.7 km/h 11.9 km/h 87 % 0.0 mm
00:34 11.3 °C 9.0 °C 1011.1 hPa SSW 7.9 km/h 10.1 km/h 87 % 0.0 mm
00:39 11.3 °C 9.0 °C 1011.1 hPa SSW 8.7 km/h 9.0 km/h 87 % 0.0 mm
00:44 11.2 °C 9.0 °C 1011.1 hPa SW 6.9 km/h 9.0 km/h 88 % 0.0 mm
00:49 11.2 °C 10.0 °C 1011.1 hPa South 5.0 km/h 9.0 km/h 89 % 0.0 mm
00:54 11.3 °C 10.0 °C 1011.1 hPa South 2.1 km/h 10.8 km/h 89 % 0.0 mm
00:59 11.3 °C 10.0 °C 1011.1 hPa Calm   10.8 km/h 89 % 0.0 mm
01:04 11.3 °C 10.0 °C 1011.1 hPa Calm   6.9 km/h 89 % 0.0 mm
01:09 11.3 °C 10.0 °C 1011.1 hPa South 5.5 km/h 7.9 km/h 89 % 0.0 mm
01:14 11.2 °C 10.0 °C 1011.1 hPa Calm   7.9 km/h 89 % 0.0 mm
01:19 11.2 °C 10.0 °C 1010.0 hPa South 8.7 km/h 13.0 km/h 89 % 0.0 mm
01:24 11.2 °C 10.0 °C 1010.0 hPa SSW 6.9 km/h 13.7 km/h 89 % 0.0 mm
01:26 11.2 °C 10.0 °C 1010.0 hPa South 5.8 km/h 13.7 km/h 89 % 0.0 mm
01:31 11.2 °C 10.0 °C 1011.1 hPa SSW 9.0 km/h 15.4 km/h 89 % 0.0 mm
01:36 11.3 °C 10.0 °C 1011.1 hPa South 12.6 km/h 16.6 km/h 89 % 0.0 mm
01:41 11.3 °C 10.0 °C 1011.1 hPa SW 5.0 km/h 16.6 km/h 89 % 0.0 mm
01:46 11.3 °C 10.0 °C 1010.0 hPa SSE 9.0 km/h 13.7 km/h 89 % 0.0 mm
01:51 11.3 °C 10.0 °C 1010.0 hPa SSW 6.9 km/h 14.0 km/h 89 % 0.0 mm
01:56 11.2 °C 10.0 °C 1010.0 hPa Calm   14.0 km/h 89 % 0.0 mm
02:01 11.2 °C 10.0 °C 1010.0 hPa South 5.8 km/h 12.2 km/h 89 % 0.0 mm
02:06 11.2 °C 10.0 °C 1010.0 hPa SSW 2.6 km/h 11.6 km/h 89 % 0.0 mm
02:07 11.2 °C 10.0 °C 1010.0 hPa SSE 6.1 km/h 11.6 km/h 89 % 0.0 mm
02:12 11.2 °C 10.0 °C 1010.0 hPa South 7.6 km/h 12.2 km/h 89 % 0.0 mm
02:17 11.1 °C 9.0 °C 1010.0 hPa SSE 6.9 km/h 12.2 km/h 89 % 0.0 mm
02:22 11.1 °C 9.0 °C 1010.0 hPa South 7.6 km/h 12.2 km/h 89 % 0.0 mm
02:27 11.1 °C 9.0 °C 1010.0 hPa SSE 6.1 km/h 10.5 km/h 89 % 0.0 mm
02:32 11.0 °C 9.0 °C 1010.0 hPa South 5.5 km/h 9.3 km/h 89 % 0.0 mm
02:37 10.9 °C 9.0 °C 1010.0 hPa SSW 2.1 km/h 9.3 km/h 90 % 0.0 mm
02:42 10.9 °C 9.0 °C 1010.0 hPa SSW 1.8 km/h 10.5 km/h 90 % 0.0 mm
02:47 10.9 °C 9.0 °C 1009.0 hPa SSE 4.7 km/h 11.9 km/h 90 % 0.0 mm
02:52 10.9 °C 9.0 °C 1009.0 hPa South 4.7 km/h 11.9 km/h 90 % 0.0 mm
02:57 10.9 °C 9.0 °C 1009.0 hPa South 4.0 km/h 10.5 km/h 90 % 0.0 mm
03:02 0.0 °C 9.0 °C 0.0 hPa Calm   9.0 km/h 0 % 0.0 mm
03:07 10.9 °C 10.0 °C 1009.0 hPa SSW 9.0 km/h 9.0 km/h 92 % 0.0 mm
03:12 10.9 °C 10.0 °C 1009.0 hPa South 7.9 km/h 19.1 km/h 92 % 0.0 mm
03:17 11.3 °C 10.0 °C 1009.0 hPa South 13.7 km/h 19.1 km/h 92 % 0.0 mm
03:22 11.5 °C 10.0 °C 1009.0 hPa South 12.2 km/h 13.7 km/h 92 % 0.0 mm
03:27 11.7 °C 10.0 °C 1009.0 hPa SSW 5.5 km/h 13.7 km/h 92 % 0.0 mm
03:29 11.7 °C 10.0 °C 1009.0 hPa South 13.0 km/h 20.6 km/h 92 % 0.0 mm
03:34 11.7 °C 10.0 °C 1008.0 hPa SW 8.7 km/h 20.6 km/h 91 % 0.0 mm
03:39 11.8 °C 10.0 °C 1008.0 hPa SSW 13.7 km/h 16.3 km/h 91 % 0.0 mm
03:44 11.9 °C 11.0 °C 1008.0 hPa SSW 9.7 km/h 16.3 km/h 91 % 0.0 mm
03:49 12.1 °C 11.0 °C 1009.0 hPa SSW 14.0 km/h 14.0 km/h 90 % 0.0 mm
03:54 12.1 °C 11.0 °C 1009.0 hPa SW 10.8 km/h 14.0 km/h 90 % 0.0 mm
03:59 12.1 °C 11.0 °C 1009.0 hPa South 1.4 km/h 13.7 km/h 89 % 0.0 mm
04:04 12.1 °C 11.0 °C 1009.0 hPa South 5.0 km/h 13.0 km/h 89 % 0.0 mm
04:09 12.1 °C 11.0 °C 1009.0 hPa SSW 11.9 km/h 11.9 km/h 89 % 0.0 mm
04:14 12.2 °C 11.0 °C 1009.0 hPa SW 14.0 km/h 14.0 km/h 89 % 0.0 mm
04:19 12.3 °C 11.0 °C 1008.0 hPa SSW 10.8 km/h 16.3 km/h 89 % 0.0 mm
04:24 12.3 °C 11.0 °C 1008.0 hPa South 9.3 km/h 20.6 km/h 89 % 0.0 mm
04:29 12.3 °C 11.0 °C 1008.0 hPa South 9.0 km/h 20.6 km/h 89 % 0.0 mm
04:35 12.3 °C 11.0 °C 1007.0 hPa South 6.1 km/h 16.6 km/h 88 % 0.0 mm
04:40 12.4 °C 11.0 °C 1007.0 hPa South 11.9 km/h 16.6 km/h 88 % 0.0 mm
04:45 12.4 °C 11.0 °C 1007.0 hPa SSE 12.6 km/h 17.7 km/h 89 % 0.0 mm
04:50 12.4 °C 11.0 °C 1007.0 hPa SE 13.0 km/h 24.5 km/h 89 % 0.0 mm
04:55 12.4 °C 11.0 °C 1007.0 hPa South 8.7 km/h 24.5 km/h 89 % 0.0 mm
05:00 12.5 °C 11.0 °C 1007.0 hPa South 20.6 km/h 20.6 km/h 89 % 0.0 mm
05:05 12.5 °C 11.0 °C 1007.0 hPa South 9.3 km/h 20.6 km/h 89 % 0.0 mm
05:10 12.5 °C 11.0 °C 1007.0 hPa South 9.0 km/h 20.6 km/h 89 % 0.0 mm
05:17 12.5 °C 11.0 °C 1007.0 hPa SSW 10.1 km/h 14.0 km/h 89 % 0.0 mm
05:20 12.6 °C 11.0 °C 1007.0 hPa South 13.0 km/h 14.0 km/h 90 % 0.0 mm
05:23 12.6 °C 11.0 °C 1007.0 hPa SSW 8.7 km/h 17.7 km/h 90 % 0.0 mm
05:27 12.6 °C 11.0 °C 1007.0 hPa SW 15.8 km/h 17.7 km/h 90 % 0.0 mm
05:29 12.5 °C 12.0 °C 1007.0 hPa South 10.5 km/h 17.7 km/h 92 % 0.0 mm
05:32 12.5 °C 12.0 °C 1006.0 hPa South 9.0 km/h 16.6 km/h 92 % 0.0 mm
05:37 12.5 °C 12.0 °C 1006.0 hPa SSW 3.5 km/h 15.8 km/h 92 % 0.0 mm
05:42 12.5 °C 12.0 °C 1006.0 hPa SSW 5.8 km/h 14.0 km/h 92 % 0.3 mm
05:47 12.5 °C 12.0 °C 1007.0 hPa South 8.7 km/h 11.9 km/h 92 % 0.5 mm
05:52 12.5 °C 12.0 °C 1007.0 hPa South 14.0 km/h 14.0 km/h 92 % 1.3 mm
05:57 12.5 °C 12.0 °C 1007.0 hPa South 14.0 km/h 14.0 km/h 92 % 1.3 mm
06:02 12.5 °C 12.0 °C 1006.0 hPa SSW 11.9 km/h 14.0 km/h 92 % 1.5 mm
06:08 12.5 °C 12.0 °C 1006.0 hPa SSW 2.6 km/h 13.7 km/h 92 % 1.5 mm
06:13 12.5 °C 12.0 °C 1006.0 hPa SSE 13.0 km/h 13.7 km/h 92 % 1.5 mm
06:18 12.5 °C 12.0 °C 1006.0 hPa South 11.9 km/h 13.0 km/h 92 % 1.5 mm
06:23 12.5 °C 12.0 °C 1006.0 hPa South 9.7 km/h 13.0 km/h 92 % 1.8 mm
06:28 12.5 °C 12.0 °C 1006.0 hPa SSE 10.1 km/h 12.2 km/h 92 % 1.8 mm
06:33 12.5 °C 12.0 °C 1007.0 hPa SSW 12.2 km/h 18.0 km/h 92 % 1.8 mm
06:38 12.6 °C 13.0 °C 1007.0 hPa SSW 7.6 km/h 18.0 km/h 98 % 1.5 mm
06:43 12.6 °C 13.0 °C 1007.0 hPa SSW 7.6 km/h 18.0 km/h 98 % 1.3 mm
06:48 12.6 °C 13.0 °C 1007.0 hPa SSW 7.6 km/h 18.0 km/h 98 % 1.3 mm
06:53 12.6 °C 13.0 °C 1007.0 hPa SSW 7.6 km/h 18.0 km/h 98 % 0.5 mm
06:58 12.6 °C 13.0 °C 1007.0 hPa SSW 7.6 km/h 18.0 km/h 98 % 0.5 mm
07:03 12.6 °C 13.0 °C 1007.0 hPa SSW 7.6 km/h 18.0 km/h 98 % 0.3 mm
07:08 12.6 °C 13.0 °C 1007.0 hPa SSW 7.6 km/h 18.0 km/h 98 % 0.3 mm
07:13 12.6 °C 13.0 °C 1007.0 hPa SSW 7.6 km/h 18.0 km/h 98 % 0.3 mm
07:18 12.6 °C 13.0 °C 1007.0 hPa SSW 7.6 km/h 18.0 km/h 98 % 0.3 mm
07:23 12.6 °C 13.0 °C 1007.0 hPa SSW 10.5 km/h 10.5 km/h 98 % 0.0 mm
07:28 12.6 °C 13.0 °C 1007.0 hPa SSW 10.5 km/h 10.5 km/h 98 % 0.0 mm
07:33 12.6 °C 13.0 °C 1007.0 hPa SSW 10.5 km/h 10.5 km/h 98 % 0.0 mm
07:38 12.6 °C 13.0 °C 1007.0 hPa SSW 10.5 km/h 10.5 km/h 98 % 0.0 mm
07:43 12.6 °C 13.0 °C 1007.0 hPa South 12.2 km/h 16.3 km/h 98 % 0.0 mm
07:48 12.6 °C 13.0 °C 1007.0 hPa SSW 15.8 km/h 16.3 km/h 98 % 0.0 mm
07:53 12.6 °C 13.0 °C 1007.0 hPa SSW 12.2 km/h 15.8 km/h 98 % 0.0 mm
07:58 12.6 °C 13.0 °C 1007.0 hPa SSW 12.2 km/h 15.8 km/h 98 % 0.0 mm
08:03 12.6 °C 13.0 °C 1007.0 hPa SSW 12.2 km/h 15.8 km/h 98 % 0.3 mm
08:08 12.6 °C 13.0 °C 1007.0 hPa SSW 12.2 km/h 15.8 km/h 98 % 0.3 mm
08:13 12.6 °C 13.0 °C 1007.0 hPa SSW 12.2 km/h 15.8 km/h 98 % 0.3 mm
08:18 12.6 °C 13.0 °C 1006.0 hPa SSW 12.2 km/h 15.8 km/h 98 % 0.3 mm
08:23 12.6 °C 13.0 °C 1006.0 hPa South 12.2 km/h 12.2 km/h 98 % 0.3 mm
08:28 13.4 °C 13.0 °C 1006.0 hPa South 12.2 km/h 12.2 km/h 98 % 0.3 mm
08:33 13.4 °C 13.0 °C 1006.0 hPa South 12.2 km/h 12.2 km/h 98 % 0.3 mm
08:38 13.4 °C 13.0 °C 1006.0 hPa South 12.2 km/h 12.2 km/h 98 % 0.3 mm
08:43 13.4 °C 13.0 °C 1006.0 hPa SSW 10.5 km/h 10.5 km/h 98 % 0.3 mm
08:48 13.4 °C 13.0 °C 1007.0 hPa South 10.1 km/h 10.5 km/h 98 % 0.3 mm
08:53 13.4 °C 13.0 °C 1007.0 hPa South 10.1 km/h 10.5 km/h 98 % 0.3 mm
08:58 13.4 °C 13.0 °C 1007.0 hPa South 10.1 km/h 10.5 km/h 98 % 0.3 mm
09:03 13.7 °C 14.0 °C 1007.0 hPa South 9.3 km/h 10.1 km/h 98 % 0.0 mm
09:08 13.7 °C 14.0 °C 1007.0 hPa SSW 11.1 km/h 11.1 km/h 98 % 0.0 mm
09:13 13.7 °C 14.0 °C 1007.0 hPa SSW 7.9 km/h 11.1 km/h 98 % 0.0 mm
09:18 13.7 °C 14.0 °C 1008.0 hPa SSW 7.9 km/h 11.1 km/h 98 % 0.0 mm
09:23 13.7 °C 14.0 °C 1008.0 hPa SSW 10.5 km/h 10.5 km/h 98 % 0.0 mm
09:28 13.7 °C 14.0 °C 1008.0 hPa SSW 10.5 km/h 10.5 km/h 98 % 0.0 mm
09:34 13.7 °C 14.0 °C 1008.0 hPa SSW 10.5 km/h 10.5 km/h 98 % 0.0 mm
09:39 13.7 °C 14.0 °C 1008.0 hPa SW 20.6 km/h 20.6 km/h 98 % 0.0 mm
09:44 13.7 °C 14.0 °C 1008.0 hPa WSW 9.3 km/h 20.6 km/h 98 % 0.0 mm
09:49 13.7 °C 14.0 °C 1009.0 hPa SW 11.9 km/h 16.3 km/h 98 % 0.0 mm
09:54 13.7 °C 14.0 °C 1009.0 hPa WSW 12.6 km/h 17.7 km/h 98 % 0.0 mm
09:59 13.7 °C 14.0 °C 1009.0 hPa SW 10.5 km/h 21.2 km/h 98 % 0.0 mm
10:04 13.7 °C 14.0 °C 1009.0 hPa SW 16.9 km/h 21.2 km/h 98 % 0.0 mm
10:09 13.7 °C 14.0 °C 1009.0 hPa SW 16.6 km/h 20.9 km/h 98 % 0.0 mm
10:14 13.7 °C 14.0 °C 1009.0 hPa SW 13.7 km/h 17.2 km/h 98 % 0.0 mm
10:16 13.7 °C 14.0 °C 1009.0 hPa WSW 13.0 km/h 17.2 km/h 98 % 0.0 mm
10:21 13.7 °C 14.0 °C 1009.0 hPa SW 14.0 km/h 21.9 km/h 98 % 0.0 mm
10:26 13.7 °C 14.0 °C 1009.0 hPa SSW 15.4 km/h 21.9 km/h 98 % 0.0 mm
10:31 13.7 °C 14.0 °C 1009.0 hPa SW 20.6 km/h 26.2 km/h 98 % 0.0 mm
10:36 13.7 °C 14.0 °C 1009.0 hPa WSW 27.7 km/h 27.7 km/h 98 % 0.0 mm
10:41 13.7 °C 14.0 °C 1009.0 hPa SSW 16.3 km/h 27.7 km/h 98 % 0.0 mm
10:46 13.7 °C 14.0 °C 1009.0 hPa SW 20.6 km/h 26.7 km/h 98 % 0.0 mm
10:51 13.7 °C 14.0 °C 1009.0 hPa SW 19.1 km/h 26.7 km/h 98 % 0.0 mm
10:56 13.7 °C 14.0 °C 1009.0 hPa SSW 20.9 km/h 28.5 km/h 98 % 0.0 mm
11:01 13.7 °C 14.0 °C 1009.0 hPa SW 20.1 km/h 28.5 km/h 98 % 0.0 mm
11:06 13.7 °C 14.0 °C 1009.0 hPa SSW 13.0 km/h 25.9 km/h 98 % 0.0 mm
11:11 13.7 °C 14.0 °C 1009.0 hPa SW 26.7 km/h 26.7 km/h 98 % 0.0 mm
11:16 13.7 °C 14.0 °C 1009.0 hPa WSW 16.6 km/h 26.7 km/h 98 % 0.0 mm
11:22 13.7 °C 14.0 °C 1009.0 hPa West 27.4 km/h 28.8 km/h 98 % 0.0 mm
11:27 13.7 °C 14.0 °C 1009.0 hPa WSW 23.0 km/h 27.4 km/h 98 % 0.0 mm
11:32 13.7 °C 14.0 °C 1009.0 hPa WSW 23.8 km/h 29.1 km/h 98 % 0.0 mm
11:37 13.7 °C 14.0 °C 1009.0 hPa SW 24.8 km/h 34.3 km/h 98 % 0.0 mm
11:42 13.7 °C 14.0 °C 1009.0 hPa WSW 27.7 km/h 34.3 km/h 98 % 0.0 mm
11:47 13.7 °C 14.0 °C 1009.0 hPa SW 16.3 km/h 27.7 km/h 98 % 0.0 mm
11:52 13.7 °C 14.0 °C 1009.0 hPa West 19.5 km/h 21.2 km/h 98 % 0.0 mm
11:57 13.7 °C 14.0 °C 1009.0 hPa WSW 16.9 km/h 36.0 km/h 98 % 0.0 mm
12:02 13.7 °C 14.0 °C 1009.0 hPa SW 13.0 km/h 36.0 km/h 98 % 0.0 mm
12:07 13.7 °C 14.0 °C 1009.0 hPa SW 23.0 km/h 25.3 km/h 98 % 0.0 mm
12:12 13.7 °C 14.0 °C 1009.0 hPa WSW 23.8 km/h 25.3 km/h 98 % 0.0 mm
12:17 13.7 °C 14.0 °C 1009.0 hPa SW 28.5 km/h 28.5 km/h 98 % 0.0 mm
12:22 13.7 °C 14.0 °C 1009.0 hPa WSW 16.9 km/h 28.5 km/h 98 % 0.0 mm
12:27 13.7 °C 14.0 °C 1009.0 hPa WSW 37.5 km/h 37.5 km/h 98 % 0.0 mm
12:32 13.7 °C 14.0 °C 1009.0 hPa SW 21.2 km/h 37.5 km/h 98 % 0.0 mm
12:37 13.7 °C 14.0 °C 1009.0 hPa SW 20.9 km/h 32.0 km/h 98 % 0.0 mm
12:42 13.7 °C 14.0 °C 1009.0 hPa WSW 24.8 km/h 31.4 km/h 98 % 0.0 mm
12:47 13.7 °C 14.0 °C 1009.0 hPa WSW 25.6 km/h 31.4 km/h 98 % 0.0 mm
12:52 13.7 °C 14.0 °C 1009.0 hPa WSW 18.3 km/h 32.8 km/h 98 % 0.0 mm
12:57 13.7 °C 14.0 °C 1009.0 hPa SW 11.9 km/h 32.8 km/h 98 % 0.0 mm
13:02 13.7 °C 14.0 °C 1009.0 hPa SSW 19.8 km/h 26.7 km/h 98 % 0.0 mm
13:08 13.7 °C 14.0 °C 1009.0 hPa WSW 16.3 km/h 25.9 km/h 98 % 0.0 mm
13:13 13.7 °C 14.0 °C 1009.0 hPa WSW 15.4 km/h 27.7 km/h 98 % 0.0 mm
13:18 13.7 °C 14.0 °C 1010.0 hPa West 12.6 km/h 27.7 km/h 98 % 0.0 mm
13:23 13.7 °C 14.0 °C 1010.0 hPa SSW 22.4 km/h 28.5 km/h 98 % 0.0 mm
13:28 13.7 °C 14.0 °C 1010.0 hPa SSW 20.9 km/h 28.5 km/h 98 % 0.0 mm
13:33 13.7 °C 14.0 °C 1010.0 hPa WSW 16.3 km/h 24.5 km/h 98 % 0.0 mm
13:38 13.7 °C 14.0 °C 1010.0 hPa SW 18.3 km/h 30.2 km/h 98 % 0.0 mm
13:43 13.7 °C 14.0 °C 1010.0 hPa WSW 36.0 km/h 36.0 km/h 98 % 0.0 mm
13:48 13.7 °C 14.0 °C 1009.0 hPa WSW 20.9 km/h 36.0 km/h 98 % 0.0 mm
13:53 13.7 °C 14.0 °C 1009.0 hPa WSW 20.6 km/h 31.7 km/h 98 % 0.0 mm
13:58 13.7 °C 14.0 °C 1009.0 hPa SSW 17.2 km/h 30.6 km/h 98 % 0.0 mm
14:03 13.7 °C 14.0 °C 1009.0 hPa SW 32.0 km/h 41.0 km/h 98 % 0.0 mm
14:08 13.7 °C 14.0 °C 1009.0 hPa WSW 27.0 km/h 41.0 km/h 98 % 0.0 mm
14:13 13.7 °C 14.0 °C 1009.0 hPa SW 31.4 km/h 31.4 km/h 98 % 0.0 mm
14:18 13.7 °C 14.0 °C 1009.0 hPa SW 20.1 km/h 31.4 km/h 98 % 0.0 mm
14:24 13.7 °C 14.0 °C 1009.0 hPa SW 24.8 km/h 37.0 km/h 98 % 0.0 mm
14:29 13.7 °C 14.0 °C 1009.0 hPa WSW 17.7 km/h 37.0 km/h 98 % 0.0 mm
14:34 13.7 °C 14.0 °C 1008.0 hPa SW 21.2 km/h 37.8 km/h 98 % 0.0 mm
14:39 13.7 °C 14.0 °C 1008.0 hPa WSW 20.6 km/h 37.8 km/h 98 % 0.0 mm
14:44 13.7 °C 14.0 °C 1008.0 hPa SSW 24.5 km/h 30.9 km/h 98 % 0.0 mm
14:49 13.7 °C 14.0 °C 1008.0 hPa WSW 16.9 km/h 37.0 km/h 98 % 0.0 mm
14:54 13.7 °C 14.0 °C 1008.0 hPa SSW 23.3 km/h 36.7 km/h 98 % 0.0 mm
14:59 13.7 °C 14.0 °C 1008.0 hPa SW 31.7 km/h 36.7 km/h 98 % 0.0 mm
15:04 13.7 °C 14.0 °C 1008.0 hPa SSW 23.3 km/h 37.5 km/h 98 % 0.0 mm
15:09 13.7 °C 14.0 °C 1008.0 hPa SW 27.0 km/h 37.5 km/h 98 % 0.0 mm
15:14 13.7 °C 14.0 °C 1008.0 hPa West 21.9 km/h 33.8 km/h 98 % 0.0 mm
15:19 13.7 °C 14.0 °C 1008.0 hPa SW 28.5 km/h 38.1 km/h 98 % 0.0 mm
15:24 13.7 °C 14.0 °C 1008.0 hPa WSW 17.7 km/h 38.1 km/h 98 % 0.0 mm
15:29 13.7 °C 14.0 °C 1008.0 hPa SW 19.8 km/h 41.0 km/h 98 % 0.0 mm
15:34 13.7 °C 14.0 °C 1007.0 hPa WSW 19.8 km/h 41.0 km/h 98 % 0.0 mm
15:39 13.7 °C 14.0 °C 1007.0 hPa WSW 13.0 km/h 27.4 km/h 98 % 0.0 mm
15:44 13.7 °C 14.0 °C 1007.0 hPa WSW 21.9 km/h 23.8 km/h 98 % 0.0 mm
15:50 13.7 °C 14.0 °C 1008.0 hPa West 12.6 km/h 23.8 km/h 98 % 0.0 mm
15:55 13.7 °C 14.0 °C 1008.0 hPa SSW 23.3 km/h 32.0 km/h 98 % 0.0 mm
16:00 13.7 °C 14.0 °C 1008.0 hPa SSW 34.3 km/h 40.7 km/h 98 % 0.0 mm
16:05 13.7 °C 14.0 °C 1008.0 hPa WSW 25.9 km/h 40.7 km/h 98 % 0.0 mm
16:10 13.7 °C 14.0 °C 1008.0 hPa WSW 16.9 km/h 38.5 km/h 98 % 0.0 mm
16:15 13.7 °C 14.0 °C 1008.0 hPa WSW 22.4 km/h 38.5 km/h 98 % 0.0 mm
16:20 13.7 °C 14.0 °C 1008.0 hPa WSW 28.5 km/h 28.8 km/h 98 % 0.0 mm
16:30 13.7 °C 14.0 °C 1008.0 hPa SW 21.2 km/h 40.4 km/h 98 % 0.0 mm
16:35 13.7 °C 14.0 °C 1008.0 hPa WSW 24.8 km/h 36.0 km/h 98 % 0.0 mm
16:40 13.7 °C 14.0 °C 1008.0 hPa SW 23.8 km/h 35.2 km/h 98 % 0.0 mm
16:45 13.7 °C 14.0 °C 1008.0 hPa WSW 17.2 km/h 36.4 km/h 98 % 0.0 mm
16:50 13.7 °C 14.0 °C 1008.0 hPa WSW 20.9 km/h 36.4 km/h 98 % 0.0 mm
16:55 13.7 °C 14.0 °C 1008.0 hPa WSW 21.9 km/h 27.4 km/h 98 % 0.0 mm
17:00 13.7 °C 14.0 °C 1009.0 hPa West 46.8 km/h 46.8 km/h 98 % 0.0 mm
17:05 13.7 °C 14.0 °C 1009.0 hPa WSW 44.6 km/h 49.7 km/h 98 % 0.0 mm
17:08 13.7 °C 14.0 °C 1009.0 hPa WSW 44.6 km/h 49.7 km/h 98 % 1.0 mm
17:13 13.7 °C 14.0 °C 1009.0 hPa WSW 39.3 km/h 44.6 km/h 98 % 1.0 mm
17:19 13.7 °C 14.0 °C 1010.0 hPa WSW 16.3 km/h 39.3 km/h 98 % 1.3 mm
17:24 13.7 °C 14.0 °C 1010.0 hPa WSW 17.7 km/h 19.1 km/h 98 % 1.3 mm
17:29 13.7 °C 14.0 °C 1010.0 hPa SW 13.0 km/h 19.1 km/h 98 % 1.3 mm
17:34 13.7 °C 14.0 °C 1009.0 hPa SW 15.8 km/h 17.7 km/h 98 % 1.3 mm
17:39 13.7 °C 14.0 °C 1009.0 hPa SW 9.7 km/h 15.8 km/h 98 % 1.3 mm
17:44 13.7 °C 14.0 °C 1009.0 hPa SW 9.3 km/h 14.0 km/h 98 % 1.3 mm
17:49 13.7 °C 14.0 °C 1009.0 hPa WSW 9.0 km/h 14.0 km/h 98 % 1.3 mm
17:54 13.7 °C 14.0 °C 1009.0 hPa WSW 12.6 km/h 13.7 km/h 98 % 1.3 mm
17:59 13.7 °C 14.0 °C 1009.0 hPa WSW 9.0 km/h 13.7 km/h 98 % 1.3 mm
18:04 13.7 °C 14.0 °C 1009.0 hPa WSW 9.0 km/h 13.7 km/h 98 % 1.5 mm
18:09 13.7 °C 14.0 °C 1009.0 hPa SSW 8.7 km/h 10.5 km/h 98 % 0.5 mm
18:14 13.7 °C 14.0 °C 1009.0 hPa SW 9.3 km/h 9.7 km/h 98 % 0.5 mm
18:19 13.7 °C 14.0 °C 1008.0 hPa SW 8.7 km/h 10.8 km/h 98 % 0.3 mm
18:24 13.7 °C 14.0 °C 1008.0 hPa WSW 10.1 km/h 10.8 km/h 98 % 0.3 mm
18:29 13.7 °C 14.0 °C 1008.0 hPa WSW 10.5 km/h 10.5 km/h 98 % 0.3 mm
18:34 13.7 °C 14.0 °C 1009.0 hPa WSW 10.1 km/h 11.9 km/h 98 % 0.3 mm
18:39 13.7 °C 14.0 °C 1009.0 hPa Calm   11.9 km/h 98 % 0.3 mm
18:44 13.7 °C 14.0 °C 1009.0 hPa SSW 5.0 km/h 11.9 km/h 98 % 0.3 mm
18:50 12.3 °C 11.0 °C 1008.0 hPa Calm   9.7 km/h 90 % 0.3 mm
18:55 12.3 °C 11.0 °C 1008.0 hPa Calm   9.7 km/h 90 % 0.3 mm
19:00 12.3 °C 11.0 °C 1008.0 hPa Calm   9.7 km/h 90 % 0.3 mm
19:05 12.3 °C 11.0 °C 1009.0 hPa Calm   9.7 km/h 90 % 0.0 mm
19:10 12.3 °C 11.0 °C 1009.0 hPa Calm   9.7 km/h 90 % 0.0 mm
19:15 12.3 °C 11.0 °C 1009.0 hPa Calm   9.7 km/h 90 % 0.0 mm
19:20 12.3 °C 11.0 °C 1009.0 hPa Calm   9.7 km/h 90 % 0.0 mm
19:25 12.3 °C 11.0 °C 1009.0 hPa SW 9.3 km/h 9.3 km/h 90 % 0.0 mm
19:30 12.3 °C 11.0 °C 1009.0 hPa SW 9.3 km/h 9.3 km/h 90 % 0.0 mm
19:35 12.3 °C 11.0 °C 1009.0 hPa SW 9.3 km/h 9.3 km/h 90 % 0.0 mm
19:40 12.3 °C 11.0 °C 1009.0 hPa SW 9.3 km/h 9.3 km/h 90 % 0.0 mm
19:45 12.3 °C 11.0 °C 1009.0 hPa SW 9.3 km/h 9.3 km/h 90 % 0.0 mm
19:50 12.3 °C 11.0 °C 1009.0 hPa SW 9.3 km/h 9.3 km/h 90 % 0.0 mm
19:55 12.3 °C 11.0 °C 1009.0 hPa SW 9.3 km/h 9.3 km/h 90 % 0.0 mm
20:00 12.3 °C 11.0 °C 1009.0 hPa SW 9.3 km/h 9.3 km/h 90 % 0.0 mm
20:05 12.3 °C 11.0 °C 1009.0 hPa SW 9.3 km/h 9.3 km/h 90 % 0.3 mm
20:10 12.3 °C 11.0 °C 1009.0 hPa SW 9.3 km/h 9.3 km/h 90 % 0.3 mm
20:15 12.3 °C 11.0 °C 1009.0 hPa SW 9.3 km/h 9.3 km/h 90 % 0.3 mm
20:20 12.3 °C 11.0 °C 1009.0 hPa SW 9.3 km/h 9.3 km/h 90 % 0.3 mm
20:26 12.3 °C 11.0 °C 1009.0 hPa SW 9.3 km/h 9.3 km/h 90 % 0.3 mm
20:31 12.3 °C 11.0 °C 1010.0 hPa SW 9.3 km/h 9.3 km/h 90 % 0.3 mm
20:36 12.3 °C 11.0 °C 1010.0 hPa SW 9.3 km/h 9.3 km/h 90 % 0.5 mm
20:41 12.3 °C 11.0 °C 1010.0 hPa SW 9.3 km/h 9.3 km/h 90 % 0.5 mm
20:46 12.3 °C 11.0 °C 1010.0 hPa SW 9.3 km/h 9.3 km/h 90 % 0.5 mm
20:51 12.3 °C 11.0 °C 1010.0 hPa SW 9.3 km/h 9.3 km/h 90 % 0.5 mm
20:56 12.3 °C 11.0 °C 1010.0 hPa SW 9.3 km/h 9.3 km/h 90 % 0.5 mm
21:01 11.6 °C 10.0 °C 1009.0 hPa SW 9.3 km/h 9.3 km/h 90 % 0.5 mm
21:06 11.6 °C 10.0 °C 1009.0 hPa SW 9.3 km/h 9.3 km/h 90 % 0.3 mm
21:11 11.6 °C 10.0 °C 1009.0 hPa SW 9.3 km/h 9.3 km/h 89 % 0.3 mm
21:16 11.7 °C 10.0 °C 1008.0 hPa SW 9.3 km/h 9.3 km/h 88 % 0.3 mm
21:21 11.7 °C 9.0 °C 1008.0 hPa SW 9.3 km/h 9.3 km/h 86 % 0.3 mm
21:26 11.7 °C 9.0 °C 1008.0 hPa SW 9.3 km/h 9.3 km/h 85 % 0.3 mm
21:31 11.7 °C 9.0 °C 1009.0 hPa SW 9.3 km/h 9.3 km/h 85 % 0.0 mm
21:36 11.7 °C 9.0 °C 1009.0 hPa SW 9.3 km/h 9.3 km/h 83 % 0.0 mm
21:41 11.7 °C 9.0 °C 1009.0 hPa SW 9.3 km/h 9.3 km/h 83 % 0.0 mm
21:46 11.7 °C 9.0 °C 1009.0 hPa SW 9.3 km/h 9.3 km/h 82 % 0.0 mm
21:47 11.7 °C 9.0 °C 1009.0 hPa SW 9.3 km/h 9.3 km/h 82 % 0.0 mm
21:52 11.8 °C 9.0 °C 1009.0 hPa SW 9.3 km/h 9.3 km/h 83 % 0.0 mm
21:57 11.8 °C 9.0 °C 1009.0 hPa SW 9.3 km/h 9.3 km/h 82 % 0.0 mm
22:02 11.8 °C 9.0 °C 1009.0 hPa SW 9.3 km/h 9.3 km/h 82 % 0.0 mm
22:07 11.8 °C 9.0 °C 1009.0 hPa SW 9.3 km/h 9.3 km/h 83 % 0.0 mm
22:12 11.8 °C 9.0 °C 1009.0 hPa SW 9.3 km/h 9.3 km/h 83 % 0.0 mm
22:17 11.8 °C 9.0 °C 1009.0 hPa SW 9.3 km/h 9.3 km/h 83 % 0.0 mm
22:22 11.8 °C 9.0 °C 1009.0 hPa SW 9.3 km/h 9.3 km/h 83 % 0.0 mm
22:27 11.8 °C 9.0 °C 1009.0 hPa SW 9.3 km/h 9.3 km/h 83 % 0.0 mm
22:32 11.6 °C 9.0 °C 1009.0 hPa SW 9.3 km/h 9.3 km/h 81 % 0.0 mm
22:37 11.6 °C 9.0 °C 1009.0 hPa SW 9.3 km/h 9.3 km/h 81 % 0.0 mm
22:42 11.6 °C 9.0 °C 1009.0 hPa WSW 13.0 km/h 23.0 km/h 81 % 0.0 mm
22:47 11.6 °C 9.0 °C 1009.0 hPa WSW 12.6 km/h 23.0 km/h 81 % 0.0 mm
22:52 11.6 °C 9.0 °C 1009.0 hPa SW 18.0 km/h 23.8 km/h 81 % 0.0 mm
22:57 11.6 °C 9.0 °C 1009.0 hPa SSW 23.3 km/h 25.3 km/h 81 % 0.0 mm
23:02 11.6 °C 9.0 °C 1009.0 hPa South 20.1 km/h 28.8 km/h 81 % 0.0 mm
23:07 11.6 °C 9.0 °C 1009.0 hPa SW 13.7 km/h 29.1 km/h 81 % 0.0 mm
23:12 11.6 °C 9.0 °C 1009.0 hPa SSW 16.6 km/h 29.1 km/h 81 % 0.0 mm
23:17 11.6 °C 9.0 °C 1008.0 hPa SW 20.6 km/h 30.2 km/h 81 % 0.0 mm
23:22 11.6 °C 9.0 °C 1008.0 hPa WSW 21.2 km/h 30.2 km/h 81 % 0.0 mm
23:27 11.6 °C 9.0 °C 1008.0 hPa WSW 16.3 km/h 27.7 km/h 81 % 0.0 mm
23:32 11.6 °C 9.0 °C 1009.0 hPa WSW 21.2 km/h 27.7 km/h 81 % 0.0 mm
23:37 11.6 °C 9.0 °C 1009.0 hPa SW 12.6 km/h 31.4 km/h 81 % 0.0 mm
23:42 11.6 °C 9.0 °C 1009.0 hPa SW 17.7 km/h 31.4 km/h 81 % 0.0 mm
23:47 11.6 °C 9.0 °C 1009.0 hPa WSW 23.0 km/h 26.7 km/h 81 % 0.0 mm
23:52 11.6 °C 9.0 °C 1009.0 hPa SSW 23.3 km/h 23.3 km/h 81 % 0.0 mm
23:57 11.6 °C 9.0 °C 1009.0 hPa SSW 24.5 km/h 24.5 km/h 81 % 0.0 mm
Le Gheer Warneton
Courtoisie de Weather Underground - 2.25 mb

Mise a jour : 18/12/2017 04:07:12
Généré par Cumulus 1.9.4 (1099)